ONEWEB-0524 (54142 NORAD) Tracking and Keplerian Element Data

This shows tracking and keplerian element data for the satellite.

Feedback or suggestion? Click here.




ElementValue
Catalog54142
NameONEWEB-0524
Epoch Orbit1229
Epoch Day13.91915936
Epoch Year2023
RAAN186.7309
Inclination86.9042
Eccentricity0.0010559
Argument of Perigee23.8629
Mean Anonmoly336.3074
Mean Motion14.68915906
Decay Rate1.718E-05
L11 54142U 22138AF 23013.91915936 .00001718 00000+0 28973-3 0 9992
L22 54142 86.9042 186.7309 0010559 23.8629 336.3074 14.68915906 12290



Live tracking and technical data element details for ONEWEB-0524 (NORAD 54142). ONEWEB-0524 can be tracked NOW for your location showing map with azimuth and elevation plus other details from your city location.







IsCatalogInMostPopularTable: catalog: 54142, numindb: 12
Update: records affected: 1



GetName: 54142 ONEWEB-0524

Hit Count: updated at: Fri, 27 Jan 2023 21:24:36 GMT